Montague, CA

7:57 AM PDT on March 28, 2017 (GMT -0700)
Siskiyou County

Weather History for KSIY - March, 2012

Change the Weather History Date:

Sunday, March 18, 2012

  Actual Average Record
Temperature  
Mean Temperature 31 °F 43 °F  
Max Temperature 39 °F 57 °F 77 °F (1972)
Min Temperature 23 °F 30 °F 14 °F (2002)
Degree Days  
Heating Degree Days 34 22  
Month to date heating degree days 436 401  
Since 1 July heating degree days 4346 4278  
Cooling Degree Days 0 0  
Month to date cooling degree days 0 0  
Year to date cooling degree days 0 0  
Moisture  
Dew Point 28 °F    
Average Humidity 82    
Maximum Humidity 82    
Minimum Humidity 59    
Precipitation  
Precipitation 0.05 in 0.06 in 2.09 in (1975)
Month to date precipitation 0.88 1.39  
Year to date precipitation 3.75 5.60  
Sea Level Pressure  
Sea Level Pressure 29.69 in    
Wind  
Wind Speed 7 mph (North)    
Max Wind Speed 29 mph    
Max Gust Speed 33 mph    
Visibility 6 miles    
Events Fog , Snow    
T = Trace of Precipitation, MM = Missing Value Source: NWS Daily Summary

Daily Weather History Graph

Daily Weather History Graph

Search for Another Location

Airport or City:

Trip Planner

Search our weather history database for the weather conditions in past years. The results will help you decide how hot, cold, wet, or windy it might be!

Date:

Astronomy

Mar. 18, 2012 Rise Set
Actual Time 7:15 AM PDT 7:20 PM PDT
Civil Twilight 6:47 AM PDT 7:48 PM PDT
Nautical Twilight 6:15 AM PDT 8:20 PM PDT
Astronomical Twilight 5:42 AM PDT 8:53 PM PDT
Moon 5:00 AM PDT (3/18) 3:50 PM PDT (3/18)
Length of Visible Light 13h 00m
Length of Day
12h 04m
Waning Crescent, 14% of the Moon is Illuminated
Mar 18
Waning Crescent
Mar 22
New
Mar 30
First Quarter
Apr 6
Full
Apr 13
Last Quarter

Hourly Weather History & Observations

Time (PDT) Temp. Windchill Dew Point Humidity Pressure Visibility Wind Dir Wind Speed Gust Speed Precip Events Conditions
12:53 AM 32.0 °F 26.4 °F 24.1 °F 73% 29.62 in 10.0 mi NE 5.8 mph - N/A   Mostly Cloudy
1:53 AM 34.0 °F 31.0 °F 25.0 °F 70% 29.61 in 10.0 mi NNW 3.5 mph - N/A   Mostly Cloudy
2:53 AM 34.0 °F 31.0 °F 25.0 °F 70% 29.61 in 10.0 mi Variable 3.5 mph - N/A   Overcast
3:53 AM 34.0 °F 29.8 °F 26.1 °F 73% 29.61 in 10.0 mi North 4.6 mph - N/A   Overcast
4:53 AM 34.0 °F 28.0 °F 28.0 °F 79% 29.62 in 10.0 mi WNW 6.9 mph - N/A   Overcast
5:53 AM 34.0 °F - 28.0 °F 79% 29.63 in 10.0 mi Calm Calm - N/A   Overcast
6:32 AM 32.0 °F - 30.2 °F 93% 29.59 in 10.0 mi Calm Calm - N/A   Overcast
6:53 AM 33.1 °F 30.0 °F 28.0 °F 82% 29.65 in 10.0 mi WSW 3.5 mph - N/A   Overcast
7:04 AM 33.8 °F 30.8 °F 28.4 °F 81% 29.59 in 10.0 mi SW 3.5 mph - N/A   Overcast
7:30 AM 33.8 °F - 28.4 °F 81% 29.60 in 6.0 mi Calm Calm - 0.00 in Snow Light Snow
7:40 AM 32.0 °F 26.4 °F 28.4 °F 87% 29.61 in 1.5 mi NNW 5.8 mph - 0.00 in Snow Light Snow
7:43 AM 32.0 °F 25.6 °F 28.4 °F 87% 29.61 in 0.8 mi North 6.9 mph - 0.00 in Snow Light Snow
7:48 AM 32.0 °F 26.4 °F 30.2 °F 93% 29.61 in 0.2 mi North 5.8 mph - 0.02 in Fog , Snow Heavy Snow
7:53 AM 30.9 °F 26.2 °F 30.0 °F 96% 29.68 in 0.2 mi NNE 4.6 mph - 0.03 in Fog , Snow Heavy Snow
8:04 AM 30.2 °F 26.7 °F 30.2 °F 100% 29.61 in 1.0 mi NE 3.5 mph - 0.00 in Snow Light Snow
8:08 AM 30.2 °F 26.7 °F 30.2 °F 100% 29.61 in 3.0 mi NE 3.5 mph - 0.00 in Snow Light Snow
8:13 AM 30.2 °F 26.7 °F 30.2 °F 100% 29.61 in 1.8 mi NE 3.5 mph - 0.01 in Snow Light Snow
8:24 AM 30.2 °F 26.7 °F 30.2 °F 100% 29.61 in 1.8 mi ENE 3.5 mph - 0.01 in Snow Light Snow
8:27 AM 30.2 °F 26.7 °F 30.2 °F 100% 29.61 in 3.0 mi East 3.5 mph - 0.01 in Snow Light Snow
8:41 AM 30.2 °F - 30.2 °F 100% 29.62 in 10.0 mi Calm Calm - 0.01 in   Overcast
8:53 AM 30.9 °F - 30.0 °F 96% 29.69 in 10.0 mi Calm Calm - 0.01 in   Overcast
9:03 AM 32.0 °F - 30.2 °F 93% 29.62 in 10.0 mi Calm Calm - N/A   Overcast
9:27 AM 33.8 °F 29.6 °F 28.4 °F 81% 29.63 in 10.0 mi Variable 4.6 mph - N/A   Overcast
9:53 AM 34.0 °F 24.6 °F 27.0 °F 75% 29.69 in 10.0 mi West 13.8 mph - N/A   Overcast
10:53 AM 37.9 °F 30.0 °F 28.0 °F 68% 29.70 in 10.0 mi West 12.7 mph - N/A   Mostly Cloudy
11:06 AM 33.8 °F 22.8 °F 28.4 °F 81% 29.65 in 1.8 mi NNW 18.4 mph 23.0 mph 0.00 in Snow Light Snow
11:10 AM 33.8 °F 21.6 °F 28.4 °F 81% 29.65 in 0.8 mi NW 23.0 mph 33.4 mph 0.00 in Snow Light Snow
11:23 AM 33.8 °F 27.0 °F 28.4 °F 81% 29.66 in 1.0 mi NW 8.1 mph - 0.00 in Snow Light Snow
11:32 AM 30.2 °F 20.2 °F 28.4 °F 93% 29.67 in 0.5 mi NW 12.7 mph 20.7 mph 0.00 in Fog , Snow Snow
11:42 AM 30.2 °F 21.3 °F 28.4 °F 93% 29.67 in 0.2 mi WNW 10.4 mph - 0.00 in Fog , Snow Heavy Snow
11:53 AM 30.9 °F 23.5 °F 28.9 °F 92% 29.75 in 0.8 mi NW 8.1 mph - 0.01 in Snow Light Snow
11:58 AM 30.2 °F 23.4 °F 28.4 °F 93% 29.67 in 2.0 mi NW 6.9 mph - 0.00 in Snow Light Snow
12:00 PM 32.0 °F 25.6 °F 28.4 °F 87% 29.67 in 3.0 mi NNW 6.9 mph - 0.00 in Snow Light Snow
12:14 PM 33.8 °F 29.6 °F 26.6 °F 75% 29.68 in 10.0 mi North 4.6 mph - 0.00 in   Overcast
12:53 PM 36.0 °F - 28.0 °F 73% 29.74 in 10.0 mi Calm Calm - 0.00 in   Overcast
1:25 PM 35.6 °F 25.9 °F 30.2 °F 81% 29.68 in 8.0 mi North 16.1 mph - 0.00 in Snow Light Snow
1:53 PM 37.0 °F 29.8 °F 32.0 °F 82% 29.74 in 9.0 mi North 10.4 mph - 0.00 in   Mostly Cloudy
2:03 PM 37.4 °F 29.3 °F 30.2 °F 75% 29.67 in 9.0 mi NNE 12.7 mph - 0.00 in Snow Light Snow
2:11 PM 37.4 °F 26.9 °F 33.8 °F 87% 29.68 in 9.0 mi NNE 20.7 mph - 0.00 in   Mostly Cloudy
2:53 PM 37.0 °F 27.0 °F 30.9 °F 79% 29.73 in 10.0 mi NNE 18.4 mph - 0.00 in   Scattered Clouds
3:53 PM 37.9 °F 27.3 °F 28.0 °F 68% 29.75 in 10.0 mi NNE 21.9 mph 27.6 mph N/A   Partly Cloudy
4:53 PM 37.0 °F 27.4 °F 26.1 °F 65% 29.78 in 9.0 mi NNE 17.3 mph - 0.00 in   Overcast
5:09 PM 35.6 °F 23.7 °F 28.4 °F 75% 29.73 in 2.5 mi NNW 24.2 mph 33.4 mph 0.00 in Snow Light Snow
5:15 PM 33.8 °F 22.2 °F 28.4 °F 81% 29.73 in 1.2 mi NNW 20.7 mph 29.9 mph 0.00 in Snow Light Snow
5:21 PM 33.8 °F 23.5 °F 28.4 °F 81% 29.73 in 3.0 mi North 16.1 mph - 0.00 in Snow Light Snow
5:28 PM 35.6 °F 26.2 °F 26.6 °F 70% 29.73 in 8.0 mi North 15.0 mph - 0.00 in   Mostly Cloudy
5:53 PM 37.0 °F 28.9 °F 24.1 °F 59% 29.80 in 10.0 mi NNW 12.7 mph - 0.00 in   Mostly Cloudy
6:53 PM 33.1 °F 25.5 °F 23.0 °F 66% 29.84 in 10.0 mi North 9.2 mph - N/A   Overcast
7:53 PM 32.0 °F 23.6 °F 24.1 °F 73% 29.88 in 9.0 mi North 10.4 mph - 0.00 in   Mostly Cloudy
8:53 PM 30.0 °F 25.2 °F 21.9 °F 72% 29.91 in 10.0 mi North 4.6 mph - N/A   Scattered Clouds
9:53 PM 27.0 °F 23.0 °F 21.0 °F 78% 29.93 in 10.0 mi ESE 3.5 mph - N/A   Partly Cloudy
10:53 PM 27.0 °F - 21.0 °F 78% 29.95 in 10.0 mi Calm Calm - N/A   Scattered Clouds
11:53 PM 27.0 °F - 21.9 °F 81% 29.98 in 10.0 mi Calm Calm - N/A   Clear